RH
3 3 4 4 5 5 4 4 9 12 15 16 16 26 30 28 32 36 44 48 59 61 65 65 63 76 73 98 66 67 81 81 83 82 90 70 67 96 96 93 96 82 54 66 50 46 56
3 3 3 4 4 4 4 4 5 9 13 17 16 24 32 31 36 29 37 43 54 55 67 79 76 80 80 89 66 70 78 83 82 87 79 60 79 97 86 98 95 60 54 68 46 47 59
4 4 3 3 3 3 4 4 4 6 10 17 18 20 31 33 38 40 29 32 38 48 66 78 80 73 68 62 69 67 79 80 84 83 88 70 85 91 99 99 76 59 59 58 47 49 66
7 6 5 4 4 3 4 4 4 4 6 15 20 18 25 33 39 44 43 31 38 50 63 84 78 82 73 64 72 70 73 74 76 77 87 84 96 99 95 85 66 54 58 48 45 44 53
10 9 8 7 6 5 4 4 4 4 5 11 19 19 19 29 37 42 44 40 36 46 57 71 81 86 85 70 67 83 75 79 94 81 70 75 95 94 88 70 60 56 52 48 40 33 33
11 10 10 9 8 8 7 6 5 5 4 7 17 20 18 22 31 39 40 43 34 36 44 57 78 94 77 86 86 84 91 71 73 87 93 97 89 84 73 61 57 52 44 40 33 31 33
11 11 11 10 10 10 9 8 6 5 5 5 14 20 18 19 25 35 39 41 39 37 42 48 64 78 98 82 76 83 95 94 78 76 92 94 78 68 69 54 47 41 38 32 38 29 34
12 11 11 11 10 10 10 8 7 6 6 5 10 19 18 19 21 31 38 44 45 38 41 46 54 68 77 88 95 92 93 93 94 90 83 79 81 83 81 62 51 43 32 45 48 31 39
16 12 11 10 11 10 10 9 8 7 6 6 7 18 19 18 18 27 35 41 42 37 44 44 51 73 88 95 86 90 95 97 95 98 91 88 72 69 62 56 49 37 32 42 38 43 46
19 17 11 9 9 10 12 12 10 9 8 7 6 16 19 18 18 24 34 39 40 40 60 43 47 56 67 74 78 80 93 87 97 85 84 73 58 59 72 52 52 44 41 33 39 48 48
21 19 15 10 8 10 16 19 16 13 10 9 7 11 18 18 17 20 29 34 34 37 73 41 43 45 53 61 61 62 69 79 80 72 77 56 59 58 57 51 49 49 40 42 34 45 39
20 21 18 12 8 8 17 25 28 24 21 14 9 8 19 19 18 18 24 28 31 43 52 39 41 42 64 50 50 50 52 60 67 72 65 61 58 48 39 38 41 42 43 45 44 44 62
19 21 21 16 10 7 12 21 32 38 38 28 13 8 19 19 18 17 20 25 39 41 40 38 39 38 58 39 43 44 63 49 56 56 54 53 50 45 37 35 33 33 37 38 57 62 80
19 21 22 19 13 8 9 13 27 36 44 46 23 10 14 21 19 18 18 21 24 32 41 36 39 55 47 38 39 39 66 64 37 46 55 48 49 38 36 41 44 38 41 63 68 81 66
19 21 23 21 16 9 8 10 21 31 41 45 41 18 11 21 21 19 22 16 22 28 24 34 51 49 50 50 41 51 39 39 37 33 46 50 41 33 31 30 37 26 28 25 43 32 49
19 23 24 22 17 11 8 10 18 26 36 41 46 30 15 14 23 22 20 22 21 22 29 29 51 44 51 43 55 50 47 35 34 33 39 43 47 34 29 30 28 25 32 37 46 67 59
20 25 25 22 18 12 9 11 19 26 32 39 42 43 24 14 18 23 23 24 26 22 19 21 25 50 50 36 53 49 33 30 29 33 34 36 39 33 32 30 33 27 38 29 32 32 76
21 25 25 22 17 12 9 12 20 30 38 41 43 45 33 32 16 19 25 25 25 28 25 21 20 18 18 30 32 43 32 27 27 25 29 30 43 42 34 23 21 21 25 27 42 43 34
23 26 24 20 15 12 9 12 23 33 35 40 41 46 44 42 22 18 22 27 26 26 29 30 29 27 22 19 31 23 28 31 30 26 24 26 39 48 35 26 21 20 20 20 22 20 19
24 26 22 17 13 10 9 13 20 32 38 38 38 40 45 46 38 32 21 24 29 29 28 29 32 35 35 33 26 26 16 12 13 12 16 18 24 41 49 40 30 33 23 21 23 34 36
26 22 18 16 12 10 12 20 30 36 43 45 47 47 48 50 48 51 34 29 23 26 31 30 31 29 32 35 36 38 38 35 32 21 21 15 12 13 12 12 13 16 18 20 24 22 27
21 18 14 11 10 12 22 34 42 47 48 51 54 56 54 53 58 52 46 34 27 20 21 31 33 31 31 35 34 32 30 33 32 34 35 35 35 36 36 38 37 32 27 17 11 10 12
15 12 15 26 39 51 58 60 58 53 52 53 59 65 60 57 58 56 52 48 32 31 28 26 26 28 31 35 34 33 35 33 31 31 33 39 40 42 45 45 37 28 30 31 33 33 32
17 50 68 62 62 66 63 59 63 63 64 63 66 69 66 63 62 57 55 53 52 42 36 31 26 28 35 35 36 38 37 37 35 33 34 36 45 48 46 45 75 42 29 25 25 28 29
59 64 72 68 73 81 78 72 70 73 72 74 76 71 67 60 57 55 56 56 55 51 48 39 34 32 32 34 39 39 45 41 38 34 31 35 44 52 54 65 34 29 34 29 33 28 26
72 77 75 72 84 82 81 78 74 74 78 82 86 78 70 66 61 58 52 48 46 43 44 44 43 37 37 39 40 46 50 44 40 36 34 34 41 47 70 59 55 35 32 34 37 38 38
86 92 77 91 87 83 85 86 81 86 80 89 90 91 83 73 70 68 64 60 57 52 48 48 47 47 45 45 46 50 53 46 43 43 40 40 42 45 51 71 50 41 45 43 44 42 44
100 100 96 95 84 86 81 91 97 85 91 88 83 91 86 83 79 74 72 72 70 68 64 62 60 54 50 51 54 59 60 55 49 47 43 44 44 46 51 69 64 48 47 44 44 46 48
99 99 99 91 98 98 99 99 97 98 99 98 88 91 87 82 77 75 73 74 73 69 71 66 65 57 54 54 58 62 59 57 50 52 49 54 49 48 54 53 45 52 52 54 54 54 57
Wind_Speed
14 15 16 17 18 18 20 21 22 22 22 20 17 16 16 18 24 24 25 28 30 29 18 12 8 10 8 5 9 6 5 6 4 14 11 18 25 18 21 25 27 22 25 11 17 21 20
14 14 15 16 17 18 20 22 22 23 22 21 17 15 15 15 20 23 25 28 26 30 31 12 10 12 8 6 8 4 3 3 1 9 14 20 23 20 21 23 19 20 19 17 23 22 27
13 14 14 16 17 18 19 21 22 23 24 22 19 14 13 13 17 20 24 26 28 28 32 18 18 8 13 7 7 6 7 3 0 4 17 17 14 18 1 13 16 19 20 17 23 19 27
11 13 14 16 17 18 19 21 22 24 24 23 21 16 13 12 15 17 20 25 27 30 27 22 17 13 12 9 5 6 6 4 3 3 2 22 8 15 22 8 16 17 16 17 24 24 20
10 11 13 14 16 18 19 21 22 23 25 24 22 18 13 11 12 15 17 19 24 27 24 33 21 15 13 9 6 7 6 4 3 4 1 8 5 15 15 16 15 20 19 19 19 22 20
10 11 11 13 15 17 19 21 22 23 25 24 23 21 16 12 10 12 14 16 18 24 27 24 28 11 13 10 10 9 4 4 1 1 5 15 17 12 12 19 15 20 20 23 22 24 20
9 10 11 12 14 16 18 21 22 23 24 25 24 21 18 13 10 10 13 14 15 19 23 26 23 24 18 10 9 9 6 5 3 3 7 14 11 15 11 13 9 14 19 21 17 23 20
11 11 11 12 13 15 18 19 21 22 23 24 23 22 20 15 11 9 10 11 10 8 19 25 23 21 20 12 13 10 2 4 1 2 8 12 9 9 5 11 10 13 21 16 9 18 16
11 12 12 12 14 15 17 19 20 21 22 23 23 22 21 18 13 9 8 8 8 7 11 22 23 23 19 19 15 16 9 20 15 9 10 8 5 6 7 8 1 12 19 13 13 20 16
11 12 13 13 13 15 17 19 19 20 22 22 22 22 21 19 16 11 6 6 7 5 4 13 18 15 19 20 20 20 15 12 13 15 8 7 8 7 9 2 3 5 13 15 17 21 15
11 13 13 14 14 15 17 19 20 20 21 21 21 22 21 20 18 13 8 7 6 5 3 11 14 13 13 14 13 14 9 13 10 9 6 9 13 10 6 5 2 6 14 15 19 15 7
11 12 14 14 14 14 16 19 20 20 21 21 20 20 20 20 19 15 10 7 6 3 5 9 13 12 9 13 12 12 10 11 11 11 5 4 7 9 5 6 2 10 12 16 13 6 1
13 13 13 15 14 13 14 17 19 20 20 21 20 18 18 18 18 14 11 7 4 6 8 7 9 11 10 10 10 10 14 10 6 4 5 3 4 7 7 10 10 14 10 6 4 2 4
15 15 15 15 15 13 13 15 17 19 20 20 19 16 16 16 16 15 12 7 8 5 5 7 9 12 13 8 11 8 8 4 9 9 7 4 3 3 5 4 5 6 6 5 4 3 4
17 16 16 16 15 14 14 14 16 17 18 19 18 14 14 14 14 13 10 10 5 5 7 6 8 8 9 11 7 8 9 7 10 5 4 3 2 2 3 2 4 4 4 3 3 4 3
19 18 17 16 15 14 13 14 15 17 17 18 17 15 15 14 14 12 11 10 6 6 6 7 4 6 4 9 5 5 7 5 8 4 4 3 3 2 4 2 2 1 0 1 3 2 1
21 18 17 16 16 15 14 13 14 16 16 16 17 15 13 13 11 10 11 8 7 6 5 5 5 4 4 5 7 4 4 2 7 5 3 4 4 1 1 1 2 1 3 3 4 3 2
23 19 17 16 16 16 15 14 13 14 14 15 15 15 12 13 9 9 9 9 8 6 6 4 5 6 5 4 5 3 4 3 4 4 2 2 2 1 5 2 4 5 6 4 2 5 5
24 20 18 16 16 16 16 16 15 14 13 15 17 14 14 14 9 10 8 6 6 7 7 6 6 6 6 7 3 6 5 3 3 4 4 3 2 2 3 4 8 7 9 8 6 4 3
27 21 20 18 17 17 16 16 17 16 15 15 18 17 14 12 9 12 9 7 5 4 5 5 5 6 5 8 6 5 4 4 4 4 3 3 2 3 2 5 5 5 6 7 9 3 1
26 24 21 20 20 19 18 18 18 16 18 20 21 19 18 15 13 12 10 9 6 5 4 3 3 4 5 4 5 7 7 5 4 3 4 4 4 7 9 12 12 12 12 11 12 11 8
27 25 24 21 20 19 20 20 22 23 25 28 26 23 19 17 14 11 10 9 8 6 7 4 4 4 4 4 4 6 6 6 5 5 6 7 4 11 11 9 12 16 16 17 18 18 20
28 26 24 21 20 20 23 24 26 30 32 32 28 20 18 16 12 11 11 10 8 9 7 6 8 9 8 6 8 9 9 10 11 11 10 8 5 7 5 9 14 14 7 10 17 18 17
29 26 24 26 29 28 32 36 34 34 34 30 21 16 15 15 12 12 10 10 12 11 10 10 10 10 10 11 11 12 13 11 12 12 11 11 7 6 7 7 2 4 6 10 9 9 10
35 33 28 29 27 27 31 29 27 25 21 17 13 13 13 13 14 13 12 12 12 12 13 11 10 12 13 12 12 9 10 7 5 7 7 8 7 4 4 4 12 18 8 7 12 12 12
42 41 39 29 24 24 25 24 21 19 17 16 14 12 11 11 13 12 11 11 11 10 12 13 14 12 11 11 9 3 3 4 5 4 4 5 7 7 5 3 4 5 12 15 13 14 9
49 43 37 33 30 29 29 23 20 16 16 16 18 15 14 13 12 12 12 13 12 11 12 14 13 14 14 13 12 8 7 10 6 6 6 7 7 13 13 8 8 17 16 14 7 8 8
44 42 37 36 40 31 27 24 22 20 19 18 19 19 19 20 19 18 18 18 18 18 18 18 16 15 12 12 8 8 9 9 9 11 10 9 6 6 6 7 10 7 8 8 11 18 24
42 39 37 41 36 30 30 30 28 27 25 24 22 22 23 21 18 18 17 17 17 17 18 19 18 13 7 8 9 7 11 10 13 11 17 14 17 13 11 9 20 24 26 29 31 29 25
Wind_Direction
49 42 37 31 30 25 23 20 18 17 13 5 3 3 7 16 19 23 23 22 26 24 10 359 7 358 342 354 330 328 334 356 1 186 195 192 192 202 219 209 187 195 202 201 214 211 187
45 40 34 31 25 21 20 19 16 15 13 9 4 1 1 12 17 22 26 26 23 21 20 6 345 347 7 333 343 327 334 318 229 202 197 190 196 221 218 185 170 164 188 210 191 206 184
39 35 31 27 23 17 15 16 15 13 13 10 6 2 356 1 10 17 24 21 19 16 17 16 15 28 24 34 31 6 343 15 253 162 199 199 223 220 126 152 166 152 179 203 189 198 190
38 32 27 25 21 16 14 13 12 11 11 10 7 1 359 349 358 10 18 25 21 18 23 30 31 41 30 39 47 31 359 57 105 160 232 204 238 123 127 113 160 178 177 180 185 196 195
30 29 25 21 17 16 14 13 12 11 10 10 8 4 358 349 347 357 11 20 27 25 27 34 40 32 24 21 39 47 46 99 102 112 168 192 183 123 111 149 148 170 180 177 187 187 201
25 19 19 17 12 14 12 12 12 11 11 8 6 6 -0 353 345 346 358 5 18 23 25 34 35 32 25 28 21 32 68 118 172 130 360 139 152 144 139 163 170 187 182 183 191 190 197
23 17 12 11 9 10 11 10 11 12 12 7 6 7 5 358 346 351 349 351 11 23 25 22 21 29 32 32 40 22 58 45 45 101 91 96 137 150 155 180 186 185 186 191 180 198 197
14 9 8 4 4 8 10 10 11 11 11 9 7 7 6 5 1 354 357 -0 1 354 20 26 20 16 14 41 51 46 65 355 18 158 157 143 154 191 192 173 203 198 191 162 150 181 181
4 4 360 1 358 3 7 8 11 11 12 9 7 7 6 7 8 5 357 2 1 5 23 23 27 34 46 57 53 44 75 88 65 71 130 100 133 134 163 173 320 171 195 163 183 167 160
352 357 355 350 353 358 3 6 9 11 11 10 8 7 8 8 10 11 11 8 6 7 47 23 18 28 38 50 47 40 52 90 42 98 27 63 107 105 176 202 170 119 142 167 170 156 153
342 345 347 346 345 353 358 2 4 9 9 9 8 8 9 9 10 15 18 21 25 40 57 357 9 19 27 25 40 48 73 61 54 23 89 95 77 103 152 200 144 152 157 157 165 144 188
330 335 336 338 342 344 352 355 359 4 7 7 8 10 11 11 13 14 21 34 41 51 34 5 9 23 17 6 25 38 54 69 74 54 78 65 56 63 96 191 242 137 138 137 132 151 276
320 323 327 330 335 337 341 347 353 355 0 5 5 10 14 17 19 19 24 26 40 47 360 357 6 18 19 16 18 26 47 54 66 54 74 23 37 52 85 130 126 121 157 104 55 58 231
312 315 317 320 325 329 332 338 345 349 351 358 1 6 13 17 23 24 29 39 57 26 1 350 17 22 9 23 18 23 66 9 53 87 42 17 356 54 102 119 139 115 110 89 174 199 211
306 308 309 311 316 320 325 331 337 343 347 354 356 2 8 17 22 29 33 49 48 26 16 43 37 45 6 359 26 14 17 32 27 118 84 348 331 195 194 97 115 133 53 358 267 253 168
299 301 301 303 306 310 316 322 329 336 342 350 354 359 8 15 20 21 35 55 56 45 33 40 63 42 11 9 45 19 8 17 21 59 118 95 359 278 213 155 124 193 285 285 252 248 142
290 290 290 292 297 301 306 313 322 329 335 343 352 355 3 6 14 16 39 54 46 40 40 39 37 62 29 26 39 28 22 353 19 44 110 108 80 0 249 284 268 329 6 299 294 303 135
280 281 280 282 288 294 301 307 314 323 334 340 349 355 354 0 1 15 32 40 37 33 35 44 35 38 34 42 43 35 9 41 16 26 62 43 130 191 222 270 259 252 248 232 323 351 354
271 270 270 271 278 284 292 300 306 313 319 330 341 347 346 344 348 1 6 19 30 30 35 31 33 26 31 38 37 28 36 31 19 15 16 20 107 336 339 270 248 245 235 228 227 242 244
263 262 262 266 270 275 281 291 299 307 317 328 336 336 334 328 337 337 340 346 356 14 24 35 33 27 24 31 33 20 24 11 357 1 5 346 263 243 247 269 282 266 262 246 224 207 311
256 255 256 260 269 275 277 285 290 295 307 320 326 325 320 301 308 315 319 325 322 338 348 5 15 25 19 18 2 351 350 357 350 354 339 319 287 281 275 276 275 270 269 267 249 242 237
253 258 256 253 259 268 280 287 292 296 304 312 313 312 300 289 288 290 297 303 302 315 322 308 322 338 338 328 333 313 325 329 316 315 315 320 295 308 315 294 288 283 276 267 263 256 254
247 250 257 265 272 277 285 288 293 297 300 303 305 299 288 279 271 274 281 289 287 300 302 296 307 312 313 314 315 312 305 299 288 283 288 290 285 310 284 307 309 297 314 276 270 272 275
243 243 257 272 279 280 285 287 292 295 297 296 295 285 273 267 259 258 261 268 277 282 285 288 291 295 299 306 307 308 305 298 288 284 274 264 271 275 285 310 338 291 309 298 283 273 284
242 242 260 274 279 280 283 279 283 290 287 279 284 277 265 260 261 259 255 259 263 266 270 275 282 287 292 297 311 321 324 316 311 299 272 259 246 258 262 245 281 285 289 284 271 278 289
244 248 258 272 276 277 270 269 274 273 266 267 275 275 270 265 264 263 263 257 256 262 266 273 279 280 283 289 298 273 281 290 289 293 270 257 240 241 256 267 263 279 304 309 302 287 284
249 249 257 266 271 266 264 260 264 270 267 264 270 267 268 267 263 260 266 269 268 265 269 276 275 278 277 277 268 256 254 251 255 258 278 270 261 256 260 255 260 269 283 289 279 296 312
243 249 254 264 268 264 268 262 257 262 264 258 270 269 271 268 268 265 265 267 267 268 268 269 280 276 268 255 250 245 242 240 254 245 270 273 267 252 253 238 263 278 281 284 296 300 301
223 229 241 256 258 255 253 256 259 257 256 259 264 270 270 272 270 274 274 278 274 271 267 262 261 259 262 263 250 249 255 252 259 261 271 263 250 257 248 253 280 291 295 292 296 298 297